Home > Weather > Elbląg > Past weeks

Flag for Poland Weather for the Past 2 Weeks in Elbląg, Poland

Now
41 °F

Fog.


Feels Like: 36 °F
Forecast: 42 / 46 °F
Wind: 7 mph from South

Location: Hel

Current Time: Feb 8, 2016 at 11:42:55 AM

Latest Report: Feb 8, 2016 at 11:00 AM


Visibility: 4 mi

Pressure: 29.56 "Hg

Humidity: 89%

Dew point: 38 °F

Location of ElblągLocation

Historic Weather in Elbląg — Graph

°F

Elbląg Temperature Yesterday

Maximum temperature yesterday: 43 °F (at 2:00 PM)
Minimum temperature yesterday: 37 °F (at 7:00 AM)
Average temperature yesterday: 40 °F

High & Low Weather Summary for the Past Weeks

 TemperatureHumidityPressure
High46 °F (Feb 2, 11:00 AM)97% (Jan 25, 6:00 PM)30.34 "Hg (Jan 25, 6:00 PM)
Low34 °F (Jan 24, 10:00 AM)65% (Feb 3, 12:00 PM)29.38 "Hg (Feb 3, 6:00 AM)
Average40 °F86%29.84 "Hg
* Reported Jan 24 10:00 AM — Feb 8 10:00 AM, Elbląg, Weather by CustomWeather, © 2016

Note: Actual official high and low records may vary slightly from our data, if they occured in-between our weather recording intervals... More about our weather records

Advertising

Elbląg Weather History for the Previous 24 Hours

 ConditionsComfort  
Time TempWeatherWind HumidityBarometerVisibility
10:00 AM
Mon, Feb 8
39 °FFog.6 mph94%29.59 "Hg2 mi
9:00 AM38 °FFog.7 mph95%29.62 "Hg2 mi
8:00 AM38 °FFog.6 mph95%29.62 "Hg2 mi
7:00 AM38 °FFog.6 mph95%29.62 "Hg2 mi
6:00 AM38 °FOvercast.6 mph95%29.62 "Hg2 mi
5:00 AM39 °FSprinkles. Overcast.2 mph95%29.64 "Hg2 mi
3:00 AM39 °FSprinkles. Overcast.5 mph88%29.64 "Hg5 mi
2:00 AM38 °FFog.5 mph88%29.62 "Hg4 mi
12:00 AM38 °FFog.5 mph88%29.62 "Hg4 mi
11:00 PM
Sun, Feb 7
39 °FFog.5 mph86%29.62 "Hg4 mi
10:00 PM39 °FFog.6 mph85%29.63 "Hg4 mi
9:00 PM39 °FFog.6 mph86%29.63 "Hg4 mi
8:00 PM40 °FFog.5 mph85%29.67 "Hg5 mi
7:00 PM40 °FFog.7 mph85%29.65 "Hg6 mi
6:00 PM41 °FFog.7 mph84%29.66 "Hg6 mi
5:00 PM42 °FFog.6 mph83%29.67 "Hg5 mi
4:00 PM43 °FScattered clouds.6 mph78%29.68 "Hg7 mi
3:00 PM43 °FScattered clouds.7 mph79%29.69 "Hg7 mi
2:00 PM43 °FScattered clouds.6 mph78%29.70 "Hg9 mi
1:00 PM43 °FScattered clouds.6 mph78%29.72 "Hg9 mi
12:00 PM42 °FScattered clouds.6 mph81%29.73 "Hg7 mi
11:00 AM41 °FPartly sunny.6 mph84%29.75 "Hg6 mi
Weather by CustomWeather, © 2016

See weather overviewHow to use our weather pages